| time (UTC) | temp F | wind direction | speed knots | gust knots | rain 1hr in | rain 24hr in | rain mn in | humidity % | barometer mb |
| 20260504081527 | 41 | 316 | 0.0 | 0.0 | 0.00 | 0.00 | 0.00 | 86 | 1009.2 |
| 20260504050007 | 44 | 312 | 0.0 | 0.0 | 0.00 | 0.00 | 0.00 | 80 | 1009.9 |
| 20260504044505 | 44 | 312 | 0.0 | 0.0 | 0.00 | 0.00 | 0.00 | 79 | 1010.1 |
| 20260504043116 | 43 | 312 | 0.0 | 0.0 | 0.00 | 0.00 | 0.00 | 77 | 1010.3 |
| 20260504041503 | 43 | 312 | 0.0 | 0.0 | 0.00 | 0.00 | 0.00 | 78 | 1010.6 |
| 20260504034555 | 41 | 312 | 0.0 | 0.0 | 0.00 | 0.00 | 0.00 | 76 | 1010.3 |
| 20260504033059 | 40 | 311 | 0.0 | 0.0 | 0.00 | 0.00 | 0.00 | 77 | 1010.1 |
| 20260504031558 | 40 | 312 | 0.0 | 0.0 | 0.00 | 0.00 | 0.00 | 75 | 1010.0 |
| 20260504030050 | 40 | 312 | 0.0 | 0.0 | 0.00 | 0.00 | 0.00 | 74 | 1009.9 |
| 20260504024556 | 40 | 312 | 0.0 | 0.0 | 0.00 | 0.00 | 0.00 | 74 | 1009.9 |
| 20260504023047 | 40 | 312 | 0.0 | 0.0 | 0.00 | 0.00 | 0.00 | 71 | 1009.9 |
| 20260504021551 | 41 | 312 | 0.0 | 0.0 | 0.00 | 0.00 | 0.00 | 69 | 1009.9 |
| 20260504020049 | 43 | 312 | 0.0 | 0.0 | 0.00 | 0.00 | 0.00 | 66 | 1009.9 |
| 20260504014542 | 45 | 312 | 0.0 | 0.0 | 0.00 | 0.00 | 0.00 | 63 | 1009.9 |
| 20260504013047 | 47 | 312 | 0.0 | 0.0 | 0.00 | 0.00 | 0.00 | 57 | 1009.9 |
| 20260504011540 | 49 | 312 | 0.0 | 0.0 | 0.00 | 0.00 | 0.00 | 53 | 1009.8 |
| 20260504010037 | 50 | 312 | 0.0 | 0.0 | 0.00 | 0.00 | 0.00 | 48 | 1009.6 |
| 20260504004543 | 50 | 28 | 0.0 | 0.9 | 0.00 | 0.00 | 0.00 | 47 | 1009.4 |
| 20260504003036 | 51 | 353 | 0.0 | 4.3 | 0.00 | 0.00 | 0.00 | 45 | 1009.3 |
| 20260504001535 | 51 | 287 | 0.9 | 3.5 | 0.00 | 0.00 | 0.00 | 44 | 1009.1 |
| 20260504000034 | 52 | 284 | 0.0 | 2.6 | 0.00 | 0.00 | 0.00 | 41 | 1009.0 |
| 20260503234534 | 53 | 20 | 0.0 | 3.5 | 0.00 | 0.00 | 0.00 | 40 | 1008.7 |
| 20260503233034 | 54 | 280 | 0.0 | 7.0 | 0.00 | 0.00 | 0.00 | 38 | 1008.6 |
| 20260503231532 | 55 | 314 | 1.7 | 6.1 | 0.00 | 0.00 | 0.00 | 35 | 1008.5 |
| 20260503230032 | 56 | 288 | 1.7 | 7.0 | 0.00 | 0.00 | 0.00 | 33 | 1008.2 |
| 20260503224531 | 56 | 328 | 2.6 | 7.8 | 0.00 | 0.00 | 0.00 | 33 | 1007.9 |
| 20260503223031 | 56 | 304 | 1.7 | 6.1 | 0.00 | 0.00 | 0.00 | 33 | 1007.9 |
| 20260503221528 | 56 | 293 | 1.7 | 6.1 | 0.00 | 0.00 | 0.00 | 31 | 1008.0 |
| 20260503220033 | 56 | 340 | 0.9 | 6.1 | 0.00 | 0.00 | 0.00 | 31 | 1007.9 |
| 20260503214526 | 56 | 291 | 2.6 | 7.0 | 0.00 | 0.00 | 0.00 | 31 | 1008.0 |
| 20260503213029 | 56 | 224 | 2.6 | 9.6 | 0.00 | 0.00 | 0.00 | 32 | 1007.9 |
| 20260503211623 | 56 | 300 | 0.9 | 7.8 | 0.00 | 0.00 | 0.00 | 34 | 1008.0 |
| 20260503210022 | 55 | 312 | 1.7 | 8.7 | 0.00 | 0.00 | 0.00 | 34 | 1007.9 |
| 20260503204520 | 55 | 305 | 1.7 | 7.8 | 0.00 | 0.00 | 0.00 | 34 | 1008.0 |
| 20260503203020 | 54 | 253 | 2.6 | 7.8 | 0.00 | 0.00 | 0.00 | 35 | 1008.4 |
| 20260503201513 | 54 | 18 | 1.7 | 7.8 | 0.00 | 0.00 | 0.00 | 38 | 1008.5 |
| 20260503200012 | 54 | 353 | 0.9 | 7.8 | 0.00 | 0.00 | 0.00 | 40 | 1008.6 |
| 20260503194509 | 53 | 266 | 1.7 | 6.1 | 0.00 | 0.00 | 0.00 | 40 | 1008.7 |
| 20260503193018 | 52 | 279 | 1.7 | 7.0 | 0.00 | 0.00 | 0.00 | 40 | 1009.0 |
| 20260503191504 | 52 | 30 | 3.5 | 7.8 | 0.00 | 0.00 | 0.00 | 40 | 1009.1 |
| 20260503190002 | 52 | 278 | 2.6 | 8.7 | 0.00 | 0.00 | 0.00 | 41 | 1009.2 |
| 20260503184608 | 52 | 4 | 1.7 | 5.2 | 0.00 | 0.00 | 0.00 | 43 | 1009.3 |
| 20260503183057 | 52 | 22 | 0.0 | 4.3 | 0.00 | 0.00 | 0.00 | 43 | 1009.3 |
| 20260503181554 | 51 | 279 | 3.5 | 7.0 | 0.00 | 0.00 | 0.00 | 44 | 1009.6 |
| 20260503180053 | 51 | 274 | 2.6 | 7.0 | 0.00 | 0.00 | 0.00 | 45 | 1009.6 |
| 20260503174604 | 50 | 260 | 2.6 | 5.2 | 0.00 | 0.00 | 0.00 | 47 | 1009.8 |
| 20260503173049 | 49 | 353 | 1.7 | 7.8 | 0.00 | 0.00 | 0.00 | 51 | 1009.8 |
| 20260503171546 | 49 | 247 | 1.7 | 6.1 | 0.00 | 0.00 | 0.00 | 51 | 1010.0 |